Precipitable_Water
0.94 0.98 0.98 0.98 1.04 1.17 1.28 1.45 1.47 1.52 1.49 1.51 1.53 1.50 1.43 1.38 1.33 1.28 1.26 1.29 1.30 1.25 1.28 1.25 1.21 1.24 1.22 1.23 1.25 1.14 1.08 1.10 1.00 1.12 1.25 1.30 1.32 1.23 1.27 1.32 1.28 1.19 1.15
0.86 0.87 0.85 0.87 0.94 1.04 1.14 1.19 1.31 1.43 1.50 1.49 1.44 1.44 1.45 1.46 1.41 1.36 1.34 1.33 1.28 1.27 1.24 1.21 1.23 1.28 1.23 1.27 1.30 1.27 1.26 1.16 1.05 1.00 1.08 1.14 1.19 1.22 1.28 1.30 1.32 1.33 1.23
0.79 0.76 0.77 0.76 0.83 0.87 0.93 1.03 1.11 1.17 1.32 1.38 1.38 1.34 1.31 1.29 1.27 1.28 1.32 1.34 1.34 1.31 1.25 1.25 1.21 1.23 1.18 1.23 1.26 1.32 1.33 1.28 1.24 1.17 1.11 1.21 1.22 1.25 1.20 1.18 1.25 1.31 1.31
0.69 0.68 0.68 0.72 0.76 0.79 0.83 0.88 0.92 1.01 1.09 1.17 1.22 1.21 1.27 1.24 1.22 1.20 1.23 1.26 1.25 1.24 1.24 1.21 1.26 1.22 1.19 1.26 1.27 1.27 1.30 1.25 1.23 1.19 1.18 1.18 1.22 1.23 1.22 1.13 1.05 1.14 1.21
0.59 0.58 0.61 0.66 0.68 0.71 0.73 0.78 0.79 0.83 0.93 1.06 1.10 1.19 1.22 1.25 1.26 1.12 1.07 1.08 1.07 1.01 1.01 1.05 1.09 1.17 1.20 1.26 1.26 1.23 1.20 1.21 1.16 1.18 1.18 1.19 1.20 1.20 1.18 1.23 1.16 1.22 1.21
0.54 0.54 0.54 0.56 0.59 0.64 0.67 0.70 0.71 0.70 0.74 0.81 0.89 0.96 1.06 1.15 1.19 1.15 1.13 1.00 0.97 0.93 0.90 0.92 0.95 1.00 1.09 1.20 1.22 1.28 1.29 1.21 1.18 1.15 1.19 1.14 1.19 1.25 1.27 1.23 1.18 1.08 1.00
0.54 0.54 0.55 0.55 0.53 0.53 0.54 0.53 0.52 0.52 0.56 0.61 0.68 0.78 0.86 0.97 1.00 1.07 1.08 1.04 1.08 1.06 0.98 0.94 0.89 0.96 1.01 1.04 1.11 1.17 1.21 1.25 1.28 1.26 1.18 1.21 1.21 1.27 1.26 1.23 1.20 1.14 1.07
0.54 0.54 0.56 0.57 0.57 0.57 0.57 0.57 0.57 0.56 0.54 0.52 0.54 0.59 0.68 0.85 0.84 0.87 0.86 0.90 0.89 0.88 0.91 0.99 1.00 0.96 0.98 0.93 0.89 0.90 0.94 1.05 1.12 1.18 1.19 1.21 1.28 1.29 1.27 1.24 1.21 1.20 1.18
0.53 0.55 0.58 0.60 0.59 0.59 0.59 0.59 0.60 0.59 0.57 0.56 0.59 0.60 0.65 0.60 0.61 0.65 0.70 0.76 0.78 0.79 0.85 1.02 1.06 1.04 1.02 1.01 0.95 0.93 0.91 0.91 1.01 0.98 0.96 0.97 1.02 1.11 1.14 1.13 1.07 1.07 1.06
0.50 0.53 0.57 0.60 0.60 0.60 0.61 0.61 0.62 0.61 0.60 0.60 0.59 0.60 0.60 0.63 0.59 0.60 0.65 0.71 0.74 0.80 0.89 0.97 1.04 1.04 1.00 1.00 0.97 0.99 0.97 1.03 1.07 1.05 1.00 1.03 1.04 1.07 1.12 1.12 1.06 1.00 1.02
0.59 0.60 0.60 0.59 0.57 0.59 0.60 0.61 0.60 0.60 0.61 0.61 0.62 0.63 0.60 0.66 0.64 0.63 0.66 0.66 0.68 0.77 0.84 0.87 0.90 0.91 0.95 0.95 0.98 0.95 0.93 0.97 0.93 0.96 1.03 1.03 1.11 1.04 1.06 1.15 1.17 1.13 0.99
0.58 0.59 0.58 0.59 0.61 0.61 0.60 0.58 0.58 0.59 0.59 0.59 0.62 0.62 0.67 0.71 0.72 0.70 0.67 0.68 0.67 0.76 0.66 0.72 0.76 0.77 0.80 0.84 0.87 0.89 0.91 0.91 0.91 0.88 0.86 0.85 0.87 1.01 1.04 1.07 1.11 1.15 1.06
0.57 0.58 0.58 0.61 0.59 0.58 0.55 0.55 0.57 0.59 0.58 0.59 0.61 0.65 0.65 0.67 0.70 0.72 0.74 0.70 0.68 0.74 0.71 0.68 0.69 0.69 0.69 0.71 0.74 0.77 0.79 0.80 0.78 0.76 0.76 0.77 0.85 0.91 0.96 0.94 0.98 1.04 1.06
0.57 0.58 0.60 0.59 0.60 0.60 0.58 0.58 0.57 0.58 0.58 0.59 0.59 0.58 0.60 0.60 0.63 0.67 0.67 0.62 0.64 0.66 0.66 0.64 0.64 0.64 0.64 0.64 0.65 0.65 0.67 0.68 0.66 0.65 0.67 0.71 0.75 0.76 0.78 0.85 0.82 0.83 0.83
0.31 0.41 0.51 0.58 0.60 0.61 0.65 0.66 0.64 0.62 0.62 0.60 0.61 0.61 0.59 0.57 0.59 0.61 0.60 0.60 0.62 0.62 0.61 0.61 0.60 0.58 0.56 0.55 0.55 0.57 0.60 0.62 0.61 0.62 0.61 0.60 0.61 0.63 0.64 0.70 0.72 0.74 0.70
0.17 0.20 0.21 0.25 0.27 0.30 0.34 0.36 0.43 0.46 0.48 0.48 0.47 0.44 0.42 0.43 0.43 0.44 0.46 0.50 0.53 0.56 0.55 0.55 0.55 0.55 0.54 0.55 0.55 0.55 0.57 0.56 0.57 0.58 0.58 0.60 0.59 0.60 0.61 0.65 0.67 0.67 0.65
0.15 0.16 0.16 0.16 0.17 0.17 0.18 0.19 0.20 0.24 0.26 0.26 0.26 0.27 0.28 0.27 0.29 0.31 0.32 0.33 0.36 0.38 0.38 0.40 0.44 0.50 0.53 0.55 0.56 0.57 0.57 0.60 0.62 0.61 0.60 0.60 0.61 0.61 0.62 0.63 0.65 0.67 0.65
0.16 0.16 0.15 0.15 0.16 0.16 0.16 0.16 0.16 0.15 0.14 0.17 0.21 0.21 0.21 0.21 0.21 0.22 0.23 0.25 0.25 0.28 0.30 0.32 0.35 0.38 0.43 0.49 0.53 0.56 0.58 0.60 0.61 0.61 0.61 0.61 0.61 0.60 0.60 0.60 0.63 0.64 0.65
0.16 0.16 0.16 0.16 0.16 0.16 0.15 0.15 0.15 0.15 0.15 0.15 0.17 0.18 0.18 0.18 0.19 0.19 0.19 0.17 0.17 0.18 0.20 0.22 0.25 0.27 0.30 0.34 0.40 0.46 0.51 0.53 0.56 0.57 0.59 0.60 0.61 0.60 0.59 0.60 0.61 0.62 0.63
0.18 0.18 0.17 0.17 0.16 0.16 0.16 0.15 0.15 0.15 0.15 0.15 0.15 0.16 0.17 0.16 0.14 0.14 0.16 0.16 0.16 0.16 0.17 0.18 0.21 0.23 0.25 0.28 0.31 0.35 0.38 0.42 0.45 0.49 0.51 0.53 0.56 0.57 0.56 0.57 0.58 0.58 0.58
0.20 0.19 0.19 0.18 0.18 0.18 0.17 0.16 0.16 0.16 0.16 0.16 0.17 0.18 0.18 0.16 0.15 0.14 0.15 0.15 0.15 0.15 0.15 0.15 0.17 0.18 0.19 0.21 0.24 0.27 0.32 0.35 0.37 0.38 0.42 0.47 0.49 0.49 0.51 0.53 0.54 0.56 0.56
0.21 0.21 0.20 0.19 0.19 0.19 0.18 0.18 0.18 0.17 0.17 0.16 0.17 0.19 0.19 0.18 0.16 0.15 0.15 0.14 0.15 0.15 0.15 0.15 0.14 0.16 0.18 0.19 0.19 0.20 0.23 0.26 0.28 0.31 0.33 0.36 0.42 0.46 0.48 0.48 0.48 0.48 0.49
0.20 0.20 0.20 0.20 0.21 0.21 0.20 0.19 0.18 0.18 0.18 0.18 0.18 0.17 0.18 0.17 0.17 0.16 0.15 0.15 0.14 0.14 0.14 0.15 0.14 0.15 0.17 0.18 0.19 0.19 0.18 0.20 0.23 0.27 0.29 0.29 0.29 0.31 0.33 0.37 0.42 0.43 0.44
0.17 0.18 0.18 0.19 0.20 0.20 0.20 0.20 0.20 0.20 0.19 0.19 0.19 0.18 0.18 0.17 0.17 0.17 0.16 0.16 0.14 0.14 0.14 0.15 0.15 0.15 0.15 0.15 0.16 0.16 0.17 0.17 0.18 0.19 0.21 0.21 0.21 0.23 0.23 0.23 0.23 0.23 0.24
0.17 0.15 0.15 0.16 0.17 0.18 0.19 0.20 0.21 0.21 0.22 0.21 0.20 0.19 0.19 0.18 0.17 0.17 0.16 0.16 0.15 0.14 0.13 0.14 0.15 0.14 0.14 0.14 0.14 0.14 0.14 0.15 0.15 0.15 0.16 0.15 0.13 0.13 0.13 0.13 0.12 0.12 0.13
0.25 0.22 0.18 0.16 0.15 0.15 0.17 0.17 0.19 0.20 0.21 0.22 0.23 0.22 0.20 0.19 0.18 0.17 0.16 0.16 0.15 0.14 0.14 0.14 0.13 0.14 0.14 0.13 0.13 0.13 0.13 0.13 0.13 0.13 0.13 0.12 0.11 0.10 0.10 0.10 0.10 0.10 0.10
Wind_Speed
28 27 27 28 30 30 30 31 29 29 31 29 29 30 32 32 32 32 32 32 32 31 30 30 29 30 31 31 32 32 31 34 38 38 37 36 36 36 35 35 34 34 34
28 28 29 28 28 29 30 30 29 30 30 30 30 30 31 31 32 33 34 34 35 34 33 33 32 31 32 33 32 33 36 36 37 39 40 40 41 38 38 40 39 39 39
27 28 28 29 28 28 29 30 30 31 32 33 33 33 32 33 34 34 34 35 34 35 35 35 35 35 35 35 35 37 36 37 37 38 39 39 41 41 42 42 42 42 42
30 30 30 30 30 30 30 31 31 32 32 33 34 35 34 33 34 35 36 35 36 35 36 36 36 36 37 37 37 37 37 37 37 38 38 38 40 41 42 42 43 44 45
32 32 32 33 33 33 33 33 34 34 34 34 35 35 35 37 35 37 36 36 37 37 38 38 39 39 39 38 37 37 37 38 38 37 37 39 37 36 36 39 42 44 46
33 33 34 34 35 36 36 36 36 36 36 37 37 38 38 38 37 36 36 38 39 39 39 39 40 41 41 41 41 40 39 38 39 39 39 37 38 38 38 38 39 38 40
32 33 34 36 37 37 38 38 38 38 39 40 40 41 42 41 41 40 40 40 40 40 41 40 40 40 40 41 42 43 43 43 44 44 43 43 44 43 41 42 42 41 41
33 34 35 37 39 39 39 39 39 39 39 39 40 41 41 41 41 42 42 42 42 42 41 41 41 41 42 42 42 43 44 45 45 46 49 49 49 47 47 45 45 48 45
30 33 35 37 37 37 37 37 39 39 38 38 39 39 39 39 39 40 40 41 42 42 42 42 42 42 42 43 44 45 46 46 46 48 49 50 50 50 49 49 47 44 46
24 28 34 38 40 40 38 39 38 37 36 35 34 34 34 36 36 37 38 39 39 40 40 40 40 41 42 42 43 45 47 47 47 49 49 51 51 51 51 50 49 48 48
14 19 22 26 32 34 35 33 33 33 32 32 31 31 32 32 33 34 35 37 38 39 39 40 41 42 43 45 45 47 48 49 49 50 50 51 52 51 52 52 52 53 53
10 11 10 11 16 22 25 27 28 28 28 28 28 27 27 29 30 32 34 36 37 38 40 42 44 45 46 47 47 49 50 51 51 52 53 53 53 53 54 54 54 56 58
11 11 10 9 6 7 12 16 20 24 25 24 24 24 26 27 28 29 32 34 36 37 40 42 44 45 46 47 48 49 50 51 52 53 54 56 57 59 60 60 61 62 62
14 13 11 9 8 6 3 4 7 11 17 21 23 24 25 25 27 28 31 33 34 36 38 40 41 43 44 45 46 48 48 49 51 52 53 55 56 58 60 60 62 63 63
16 16 16 14 8 7 7 7 4 4 5 9 14 19 21 23 25 26 27 29 31 33 34 36 37 38 40 41 42 44 45 46 48 50 51 53 55 56 56 57 59 62 63
18 17 16 15 14 12 10 9 9 8 8 6 6 7 10 13 17 21 24 26 28 30 32 34 35 37 38 39 40 40 41 42 43 44 47 49 51 52 53 53 54 54 56
18 18 18 18 17 16 15 14 13 12 11 11 11 10 11 13 15 18 21 23 24 26 28 29 31 33 34 36 37 37 38 38 38 37 38 39 40 41 43 45 45 44 44
20 19 18 18 17 17 17 17 16 16 15 15 15 15 15 16 16 18 19 19 21 23 24 27 28 30 31 31 32 32 32 33 33 33 32 32 32 32 32 32 33 35 34
18 17 17 17 17 17 17 17 18 18 17 17 17 18 19 20 20 21 21 21 22 23 24 25 26 27 28 29 30 30 31 31 32 32 32 31 30 28 27 27 26 25 24
17 17 17 16 16 17 17 18 18 18 18 19 20 20 20 21 22 23 24 24 25 25 25 25 25 25 25 26 26 27 27 28 28 28 28 27 27 27 26 24 21 19 16
15 15 15 16 16 16 16 17 17 18 18 18 19 20 21 21 22 22 24 24 24 25 26 27 26 26 26 25 24 23 23 24 24 24 24 24 23 22 21 20 18 16 14
13 14 13 13 14 14 15 16 16 17 18 18 19 19 20 20 22 22 23 23 23 24 24 25 26 26 26 27 26 24 23 21 21 20 20 20 18 17 16 15 14 12 10
11 12 12 12 13 14 15 15 16 17 18 18 19 20 20 21 21 22 23 23 23 23 23 24 24 25 26 26 26 26 25 24 22 20 18 16 15 14 13 11 10 9 7
11 11 12 12 13 14 15 16 17 18 18 19 19 20 21 21 22 22 22 22 22 22 22 22 23 24 24 25 25 25 25 25 24 22 19 17 15 13 12 10 9 8 7
13 13 14 14 15 15 16 17 18 19 19 20 21 21 22 22 22 22 22 22 22 21 21 21 22 22 23 24 24 24 24 23 23 22 21 19 16 14 13 11 9 7 6
15 15 16 16 17 18 18 19 20 21 21 22 22 22 23 23 23 23 22 22 21 21 21 21 21 21 21 21 22 23 23 22 22 21 20 19 17 15 13 12 10 8 7
Wind_Direction
235 237 241 243 244 246 248 250 249 248 249 240 244 243 245 246 249 251 254 255 255 259 262 263 265 266 266 269 269 268 271 272 271 271 270 271 272 272 273 273 274 274 274
236 239 243 247 247 246 248 250 250 248 247 248 249 249 250 249 251 254 255 255 256 258 261 263 264 267 267 269 271 272 272 273 275 275 269 271 270 274 272 273 273 274 274
237 240 244 247 248 248 249 250 250 249 249 249 249 251 253 253 254 255 256 257 258 259 261 263 264 265 267 270 272 273 274 276 275 277 276 272 272 273 273 273 273 275 274
244 246 247 247 249 250 252 251 252 252 252 253 252 254 255 255 256 256 256 257 259 260 261 263 264 265 267 271 271 273 274 274 276 277 276 276 274 275 274 275 273 272 272
248 248 249 249 249 251 253 254 254 254 254 255 255 256 256 256 257 256 257 258 259 261 263 264 265 266 267 269 272 273 274 273 275 277 279 278 278 279 277 277 275 276 274
250 250 250 250 251 252 254 254 256 255 256 257 257 257 257 256 256 257 258 258 259 261 263 265 267 267 267 269 270 273 272 274 273 274 278 277 279 280 282 280 279 280 280
253 253 252 252 252 255 255 257 256 256 257 258 259 259 257 257 258 259 259 259 260 262 264 266 268 268 269 270 271 271 272 272 271 273 275 276 278 279 280 282 279 279 280
253 255 254 254 255 255 254 256 258 258 259 260 260 259 258 257 258 258 258 259 261 263 265 266 268 269 270 271 272 272 272 273 273 273 274 276 277 279 278 280 281 277 280
261 260 260 258 256 256 256 258 259 260 260 260 260 259 258 256 257 259 259 259 261 262 264 266 268 270 271 271 272 273 273 274 275 275 275 276 278 278 278 280 279 277 276
268 269 266 259 256 256 257 258 259 259 258 258 258 258 257 257 259 260 260 260 262 264 266 268 269 271 272 274 274 275 275 276 277 277 277 276 276 277 277 276 276 275 280
285 287 281 265 256 254 253 254 254 257 256 256 256 258 258 260 261 262 262 261 264 265 267 269 271 273 274 275 275 276 276 277 278 278 278 279 278 277 277 277 275 274 276
341 338 327 290 264 250 250 252 254 254 253 255 255 257 259 262 263 265 265 265 266 267 269 270 273 275 276 276 276 276 277 277 278 278 278 279 279 277 279 278 276 275 275
13 8 6 4 342 276 260 255 256 253 252 254 257 259 264 266 267 270 268 270 271 271 272 274 276 277 278 278 278 278 278 278 278 279 279 279 279 279 279 279 278 278 276
30 25 23 22 30 36 8 295 275 266 255 253 258 262 265 270 273 274 276 277 276 276 277 277 278 279 279 280 280 280 280 281 281 280 280 281 282 281 280 280 279 278 277
39 40 41 42 51 44 34 28 9 340 300 273 268 267 271 277 279 280 283 283 282 281 281 282 283 284 284 284 284 284 284 284 283 283 283 283 283 284 283 283 282 280 277
43 44 44 47 50 49 43 43 44 40 24 9 342 310 293 289 290 290 290 291 291 288 287 287 288 288 287 288 287 288 288 288 288 288 287 287 286 286 286 285 284 284 282
44 44 46 47 47 47 45 44 41 38 33 26 16 3 346 329 320 314 308 303 302 298 296 295 293 292 292 291 290 290 290 292 293 293 293 295 295 293 292 289 288 288 289
47 47 47 47 46 46 44 41 39 36 30 25 21 15 9 2 355 349 343 334 328 321 312 305 301 299 298 296 295 294 294 293 294 295 297 299 302 304 303 304 297 290 290
41 42 43 43 43 43 42 40 37 34 31 26 22 19 16 12 8 5 0 356 350 345 339 329 318 310 305 302 299 297 297 297 297 296 296 296 299 304 309 312 312 309 295
36 37 38 39 39 38 36 35 32 30 28 25 22 19 15 13 12 10 8 5 3 360 355 351 347 339 328 318 311 307 303 303 302 301 301 300 298 298 301 305 314 321 324
29 30 32 33 35 32 30 29 26 23 20 17 15 13 10 9 6 4 3 1 1 1 1 360 358 356 355 348 339 329 323 316 311 308 307 306 305 303 303 303 303 305 316
19 21 21 22 20 20 18 16 13 12 10 8 5 4 3 2 2 1 359 359 358 358 358 360 1 1 1 0 360 354 348 340 334 328 323 319 316 314 312 311 310 310 308
359 3 5 6 6 5 3 2 1 359 358 357 357 357 356 356 355 355 356 356 355 355 355 357 359 0 1 1 2 2 2 358 354 349 343 339 335 332 329 325 320 319 317
334 338 342 344 346 347 348 349 349 349 348 347 347 348 348 348 347 348 349 350 351 351 351 353 354 356 358 0 2 2 3 5 5 3 0 357 355 350 345 341 336 331 324
315 317 320 323 327 330 334 336 339 340 340 340 340 340 340 340 341 340 341 342 344 345 346 346 348 350 353 356 358 1 1 2 4 6 7 5 3 2 360 357 354 353 349
308 308 309 310 311 315 319 321 325 328 330 331 332 332 333 334 334 334 334 333 334 336 337 339 340 341 344 348 351 353 356 358 358 360 2 3 3 3 3 2 1 359 357